Flag for Russia Weather past 2 weeks in Sochi, Russia

Now
79 °F

Passing clouds.


Feels Like: 81 °F
Forecast: 73 / 84 °F
Wind: 3 mph from Northwest

Location: Adler

Current Time: Aug 20, 2014 at 9:01:47 PM

Latest Report: Aug 20, 2014 at 8:30 PM


Visibility: N/A

Pressure: 29.95 "Hg

Humidity: 74%

Dew point: 70 °F

Location of SochiLocation

Historic Weather in Sochi — Graph

°F

Sochi temperature yesterday

Maximum temperature yesterday: 86 °F (at 12:30 PM)
Minimum temperature yesterday: 70 °F (at 9:00 AM)
Average temperature yesterday: 77 °F

Past Weeks' High & Low Weather Summary

 TemperatureHumidityPressure
High91 °F (Aug 15, 12:30 PM)94% (Aug 6, 11:30 PM)30.01 "Hg (Aug 6, 11:30 PM)
Low66 °F (Aug 7, 4:30 AM)41% (Aug 15, 12:30 PM)29.56 "Hg (Aug 17, 8:30 PM)
Average78 °F72%29.80 "Hg
* Reported Aug 5 8:00 PM — Aug 20 8:00 PM, Sochi, Weather by CustomWeather, © 2014

Note: Actual official high and low records may vary slightly from our data, if they occured in-between our weather recording intervals... More about our weather records

Advertising

Sochi weather history for previous 24 hours

 ConditionsComfort  
Time TempWeatherWind HumidityBarometerVisibility
8:00 PM
Aug 20
79 °FPassing clouds.3 mph74%29.95 "HgN/A
7:30 PM81 °FPassing clouds.6 mph66%29.95 "HgN/A
7:00 PM81 °FPassing clouds.6 mph66%29.95 "HgN/A
6:30 PM81 °FPassing clouds.6 mph66%29.95 "HgN/A
6:00 PM82 °FPassing clouds.6 mph62%29.95 "HgN/A
5:30 PM82 °FPartly sunny.6 mph62%29.95 "HgN/A
5:00 PM82 °FBroken clouds.3 mph66%29.95 "HgN/A
4:30 PM81 °FBroken clouds.3 mph70%29.98 "HgN/A
4:00 PM81 °FPartly sunny.3 mph70%29.98 "HgN/A
3:30 PM81 °FPartly sunny.6 mph70%29.98 "HgN/A
3:00 PM82 °FThundershowers. Partly sunny.6 mph70%30.01 "HgN/A
2:30 PM79 °FThundershowers. Partly sunny.6 mph79%30.01 "HgN/A
2:00 PM79 °FThundershowers. Partly sunny.8 mph79%30.01 "HgN/A
1:30 PM84 °FBroken clouds.8 mph62%29.98 "HgN/A
1:00 PM82 °FPartly sunny.8 mph62%30.01 "HgN/A
12:30 PM82 °FPartly sunny.8 mph58%30.01 "HgN/A
12:00 PM81 °FPartly sunny.6 mph66%30.01 "Hg6 mi
11:30 AM81 °FPartly sunny.6 mph62%30.01 "HgN/A
11:00 AM81 °FPartly sunny.6 mph66%30.01 "HgN/A
10:30 AM79 °FBroken clouds.3 mph65%29.98 "HgN/A
10:00 AM79 °FMore clouds than sun.3 mph70%29.98 "HgN/A
9:30 AM75 °FMore clouds than sun.6 mph78%29.98 "HgN/A
9:00 AM75 °FMore clouds than sun.3 mph78%29.98 "HgN/A
8:30 AM73 °FMore clouds than sun.6 mph83%29.95 "HgN/A
8:00 AM73 °FMore clouds than sun.1 mph83%29.95 "HgN/A
7:30 AM75 °FMostly cloudy.3 mph78%29.95 "HgN/A
7:00 AM73 °FMostly cloudy.3 mph78%29.95 "HgN/A
6:30 AM73 °FMostly cloudy.8 mph78%29.92 "HgN/A
6:00 AM73 °FMostly cloudy.6 mph78%29.92 "HgN/A
5:30 AM73 °FMostly cloudy.6 mph78%29.89 "HgN/A
5:00 AM73 °FMostly cloudy.6 mph78%29.89 "HgN/A
4:30 AM73 °FMostly cloudy.6 mph78%29.92 "HgN/A
4:00 AM72 °FMostly cloudy.6 mph88%29.92 "HgN/A
3:30 AM73 °FMostly cloudy.1 mph83%29.92 "HgN/A
3:00 AM73 °FPartly cloudy.6 mph83%29.89 "HgN/A
2:30 AM73 °FPartly cloudy.6 mph83%29.89 "HgN/A
2:00 AM73 °FPartly cloudy.6 mph83%29.92 "HgN/A
1:30 AM73 °FPassing clouds.3 mph83%29.92 "HgN/A
12:30 AM73 °FPassing clouds.3 mph83%29.92 "HgN/A
12:00 AM75 °FPassing clouds.1 mph78%29.89 "HgN/A
11:30 PM
Aug 19
75 °FPartly cloudy.10 mph78%29.89 "HgN/A
11:00 PM73 °FPartly cloudy.6 mph89%29.89 "HgN/A
10:30 PM75 °FPartly cloudy.3 mph83%29.92 "HgN/A
10:00 PM75 °FPartly cloudy.3 mph83%29.92 "HgN/A
9:30 PM77 °FPartly cloudy.3 mph79%29.92 "HgN/A
9:00 PM75 °FPartly sunny.3 mph83%29.89 "HgN/A
Weather by CustomWeather, © 2014

See weather overviewHow to use our weather pages